| time (UTC) | temp F | wind direction | speed MPH | gust MPH | rain 1hr in | rain 24hr in | rain mn in | humidity % | barometer mb |
| 20260505012858 | 83 | 0 | 0.0 | 0.0 | 0.00 | 0.00 | 0.00 | 25 | 1025.0 |
| 20260505005855 | 82 | 0 | 0.0 | 0.0 | 0.00 | 0.00 | 0.00 | 26 | 1025.0 |
| 20260505002853 | 82 | 0 | 0.0 | 0.0 | 0.00 | 0.00 | 0.00 | 24 | 1025.0 |
| 20260504235850 | 81 | 0 | 0.0 | 0.0 | 0.00 | 0.00 | 0.00 | 23 | 1025.0 |
| 20260504232847 | 79 | 0 | 0.0 | 0.0 | 0.00 | 0.00 | 0.00 | 24 | 1025.0 |
| 20260504225844 | 80 | 0 | 0.0 | 0.0 | 0.00 | 0.00 | 0.00 | 21 | 1025.0 |
| 20260504222842 | 81 | 0 | 0.0 | 0.0 | 0.00 | 0.00 | 0.00 | 20 | 1025.0 |
| 20260504215839 | 80 | 0 | 0.0 | 0.0 | 0.00 | 0.00 | 0.00 | 20 | 1025.0 |
| 20260504212836 | 79 | 0 | 0.0 | 0.0 | 0.00 | 0.00 | 0.00 | 19 | 1025.0 |
| 20260504205834 | 79 | 0 | 0.0 | 0.0 | 0.00 | 0.00 | 0.00 | 19 | 1025.0 |
| 20260504202831 | 79 | 0 | 0.0 | 0.0 | 0.00 | 0.00 | 0.00 | 18 | 1025.0 |
| 20260504195829 | 80 | 0 | 0.0 | 0.0 | 0.00 | 0.00 | 0.00 | 17 | 1025.0 |
| 20260504192826 | 79 | 0 | 0.0 | 0.0 | 0.00 | 0.00 | 0.00 | 18 | 1025.0 |
| 20260504185820 | 80 | 0 | 0.0 | 0.0 | 0.00 | 0.00 | 0.00 | 18 | 1025.0 |
| 20260504182817 | 80 | 0 | 0.0 | 0.0 | 0.00 | 0.00 | 0.00 | 17 | 1025.0 |
| 20260504175815 | 80 | 0 | 0.0 | 0.0 | 0.00 | 0.00 | 0.00 | 18 | 1025.0 |
| 20260504172812 | 80 | 0 | 0.0 | 0.0 | 0.00 | 0.00 | 0.00 | 19 | 1025.0 |
| 20260504045639 | 83 | 0 | 0.0 | 0.0 | 0.00 | 0.00 | 0.00 | 29 | 1025.0 |
| 20260504042635 | 83 | 0 | 0.0 | 0.0 | 0.00 | 0.00 | 0.00 | 29 | 1025.0 |
| 20260504035632 | 83 | 0 | 0.0 | 0.0 | 0.00 | 0.00 | 0.00 | 28 | 1025.0 |
| 20260504032629 | 83 | 0 | 0.0 | 0.0 | 0.00 | 0.00 | 0.00 | 29 | 1025.0 |
| 20260504025626 | 83 | 0 | 0.0 | 0.0 | 0.00 | 0.00 | 0.00 | 33 | 1025.0 |
| 20260504022624 | 85 | 0 | 0.0 | 0.0 | 0.00 | 0.00 | 0.00 | 27 | 1025.0 |
| 20260504015621 | 84 | 0 | 0.0 | 0.0 | 0.00 | 0.00 | 0.00 | 28 | 1025.0 |